[[{"header":{"parameterUnit":"m.s-1","parameterCategory":1,"la1":30.2991,"la2":30.254,"lo1":-89.0895,"lo2":-89.0444,"dy":0.0017,"dx":0.0017,"nx":28,"ny":28,"refTime":"2023-11-01T03:00:00:Z","depth":0,"parameterNumber":2,"parameterNumberName":"U-component_of_WINDS"},"data":[0,0,0,0,0,0,0,0,0,0,0,0,0,0,0,0,0,0,0,0,0,0,0,0,0,0,0,0,0,0,0,0,0,0,0,0,0,0,0,0,0,0,0,0,0,0,0,0,0,0,0,0,0,0,0,0,0,0,-4.3268,-4.3269,0,-4.3323,-4.3324,-4.3324,-4.3181,-4.3177,-4.3173,-4.3168,-4.3225,-4.3231,-4.3236,0,0,0,0,0,0,0,0,0,0,0,0,0,-4.3038,-4.3043,-4.3268,-4.3269,-4.3269,-4.3323,-4.3324,-4.3324,-4.3182,-4.3177,-4.3171,-4.3166,-4.3223,-4.323,-4.3237,0,0,0,0,0,0,0,0,0,0,0,0,0,-4.312,-4.3045,-4.3268,-4.3205,-4.32,-4.3323,-4.3324,-4.3325,-4.3183,-4.3177,-4.317,-4.3164,-4.3221,-4.3229,-4.3238,-4.3424,0,0,-4.3264,-4.3267,0,0,0,0,0,0,0,0,-4.3116,-4.3129,-4.3213,-4.3209,-4.3204,-4.3238,-4.3263,-4.3358,-4.3185,-4.319,-4.3168,-4.316,-4.3235,-4.3242,-4.3267,-4.3427,-4.3429,-4.3264,-4.327,-4.3273,-4.3276,0,0,0,0,0,0,0,-4.311,-4.3126,-4.329,-4.3215,-4.3209,-4.3173,-4.3178,-4.3281,-4.3249,-4.3189,-4.3178,-4.3187,-4.3231,-4.3259,-4.3267,-4.343,-4.3264,-4.3272,-4.3277,-4.328,-4.3744,-4.375,0,0,0,0,0,0,-4.3113,-4.3122,-4.3288,-4.3291,-4.3142,-4.3183,-4.3188,-4.3234,-4.3248,-4.3243,-4.3193,-4.318,-4.3248,-4.3257,-4.3269,-4.3485,-4.3273,-4.3281,-4.3286,-4.3736,-4.3745,-4.3753,0,0,0,0,0,0,-4.3108,-4.3129,-4.3286,-4.3204,-4.3221,-4.3194,-4.3247,-4.3239,-4.3266,-4.3251,-4.3244,-4.3227,-4.3243,-4.3257,-4.3386,-4.3486,-4.3285,-4.3293,-4.3728,-4.3739,-4.3749,-4.3923,0,0,0,0,0,0,-4.3102,-4.3128,-4.3199,-4.3207,-4.3226,-4.3403,-4.3254,-4.3245,-4.3282,-4.3266,-4.3281,-4.3277,-4.3239,-4.3374,-4.3395,-4.3494,-4.3299,-4.3719,-4.3733,-4.3746,-4.3908,-4.3938,-4.3964,0,0,0,0,0,-4.3095,-4.3246,-4.3203,-4.3224,-4.3314,-4.3409,-4.342,-4.3372,-4.329,-4.3361,-4.335,-4.3277,-4.3472,-4.3389,-4.341,-4.3514,-4.3712,-4.3729,-4.3745,-4.3895,-4.3932,-4.3963,0,0,0,0,0,0,-4.3252,-4.3246,-4.3198,-4.3357,-4.3385,-4.3385,-4.3472,-4.3413,-4.3464,-4.3447,-4.3386,-4.3391,-4.3531,-4.3536,-4.3443,-4.3694,-4.3578,-4.3599,-4.3685,-4.372,-4.3748,-4.3742,-4.3306,0,0,0,0,0,-4.3305,-4.3382,-4.3374,-4.3514,-4.3531,-4.35,-4.3539,-4.35,-4.3526,-4.3537,-4.3535,-4.3563,-4.363,-4.3676,-4.3737,-4.3909,-4.3909,-4.3991,-4.4019,-4.4042,-4.406,-4.4149,-4.4184,-4.3806,-4.3806,-4.3806,0,0,-4.3415,-4.3422,-4.3474,-4.3546,-4.3562,-4.3643,-4.351,-4.3602,-4.3661,-4.355,-4.3671,-4.3672,-4.3699,-4.385,-4.3916,-4.3858,-4.4165,-4.4063,-4.4081,-4.4087,-4.4169,-4.4205,-4.4237,-4.3817,-4.3815,-4.3813,0,0,-4.3656,-4.3671,-4.3788,-4.3807,-4.3834,-4.3812,-4.3841,-4.385,-4.3846,-4.3967,-4.3885,-4.3955,-4.4073,-4.4094,-4.4121,-4.4371,-4.4304,-4.4393,-4.4538,-4.4625,-4.4655,-4.4681,-4.4768,-4.48,-4.4412,-4.4412,-4.4413,0,-4.379,-4.3909,-4.3856,-4.3953,-4.3986,-4.389,-4.4008,-4.4029,-4.4075,-4.41,-4.4034,-4.4178,-4.419,-4.4343,-4.4404,-4.443,-4.4459,-4.4389,-4.4655,-4.4681,-4.4704,-4.4786,-4.4819,-4.4423,-4.4421,-4.442,-4.4419,0,-4.407,-4.4154,-4.4246,-4.4291,-4.4335,-4.4442,-4.4405,-4.4456,-4.4414,-4.4399,-4.4522,-4.4533,-4.4594,-4.4628,-4.4588,-4.4776,-4.4738,-4.4666,-4.4547,-4.4752,-4.4827,-4.4858,-4.4437,-4.4434,-4.4431,-4.4428,0,0,-4.441,-4.4425,-4.4459,-4.4478,-4.4501,-4.4564,-4.4667,-4.4726,-4.4769,-4.4805,-4.4887,-4.499,-4.4922,-4.4952,-4.4914,-4.4991,-4.5185,-4.4908,-4.4908,-4.4957,-4.539,-4.5442,-4.5479,-4.5142,-4.5148,-4.5153,-4.5386,0,-4.4645,-4.4821,-4.4776,-4.495,-4.5025,-4.4936,-4.5025,-4.5048,-4.5038,-4.51,-4.5088,-4.516,-4.5067,-4.5084,-4.5156,-4.5146,-4.5271,-4.5129,-4.5217,-4.5221,-4.521,-4.5519,-4.5575,-4.5794,-4.5416,-4.5421,-4.5424,0,-4.4943,-4.4989,-4.5171,-4.5179,-4.5209,-4.529,-4.5339,-4.5401,-4.5425,-4.5412,-4.5446,-4.5392,-4.5493,-4.5376,-4.5513,-4.5418,-4.5451,-4.5452,-4.5459,-4.5463,-4.5333,-4.5528,-4.5864,-4.5895,-4.5471,-4.5467,-4.5464,0,-4.5169,-4.5277,-4.5398,-4.5417,-4.5432,-4.549,-4.5499,-4.5516,-4.5554,-4.5598,-4.5622,-4.5678,-4.5708,-4.5752,-4.5714,-4.5633,-4.5856,-4.5737,-4.5846,-4.5847,-4.5894,-4.5891,-4.6237,-4.5922,-4.5922,-4.5921,-4.592,0,-4.5435,-4.5549,-4.5499,-4.5574,-4.5698,-4.5647,-4.5771,-4.5769,-4.5786,-4.5858,-4.5785,-4.5854,-4.5802,-4.5867,-4.5839,-4.5954,-4.5969,-4.596,-4.5951,-4.5965,-4.5966,-4.5984,-4.5966,-4.593,-4.5928,-4.5926,-4.5925,0,-4.5707,-4.5679,-4.5805,-4.5808,-4.5811,-4.5903,-4.5905,-4.5973,-4.5958,-4.605,-4.6068,-4.6044,-4.6116,-4.6084,-4.616,-4.6141,-4.6289,-4.6261,-4.628,-4.6272,-4.6381,-4.637,-4.6748,-4.6794,-4.6453,-4.6457,-4.6459,0,-4.5877,-4.5962,-4.5974,-4.6017,-4.603,-4.6101,-4.6139,-4.6092,-4.6134,-4.6168,-4.6233,-4.6299,-4.6348,-4.6468,-4.6457,-4.6514,-4.6485,-4.6613,-4.6493,-4.6504,-4.6483,-4.6477,-4.6484,-4.6636,-4.664,-4.6644,-4.6646,0,-4.618,-4.6162,-4.6219,-4.6273,-4.632,-4.636,-4.6393,-4.6432,-4.6386,-4.6438,-4.6511,-4.655,-4.6627,-4.6692,-4.6743,-4.6751,-4.6691,-4.6685,-4.6712,-4.6726,-4.6732,-4.6727,-4.6343,-4.6675,-4.6673,-4.667,-4.6669,-4.6668,-4.6403,-4.6474,-4.6493,-4.6559,-4.658,-4.6612,-4.6676,-4.6669,-4.6728,-4.6787,-4.6756,-4.6841,-4.6862,-4.6923,-4.694,-4.7005,-4.6954,-4.6995,-4.7005,-4.7015,-4.7028,-4.6725,-4.7014,-4.7014,-4.7013,-4.7012,-4.7011,0,-4.67,-4.6708,-4.677,-4.6818,-4.687,-4.681,-4.6844,-4.6891,-4.6966,-4.6991,-4.7042,-4.7124,-4.7188,-4.7182,-4.724,-4.7293,-4.7267,-4.731,-4.7303,-4.7306,-4.7071,-4.704,-4.733,-4.733,-4.733,-4.733,-4.7329,-4.7329,-4.686,-4.6975,-4.6959,-4.7084,-4.7091,-4.7172,-4.7196,-4.7226,-4.7245,-4.7341,-4.7393,-4.7389,-4.7402,-4.746,-4.7515,-4.7512,-4.7535,-4.7588,-4.7574,-4.7354,-4.7323,-4.7292,-4.7262,-4.7594,-4.7594,-4.7802,-4.7804,-4.7806]},{"header":{"parameterUnit":"m.s-1","parameterCategory":1,"la1":30.2991,"la2":30.254,"lo1":-89.0895,"lo2":-89.0444,"dy":0.0017,"dx":0.0017,"nx":28,"ny":28,"refTime":"2023-11-01T03:00:00:Z","depth":0,"parameterNumber":3,"parameterNumberName":"V-component_of_WINDS"},"data":[0,0,0,0,0,0,0,0,0,0,0,0,0,0,0,0,0,0,0,0,0,0,0,0,0,0,0,0,0,0,0,0,0,0,0,0,0,0,0,0,0,0,0,0,0,0,0,0,0,0,0,0,0,0,0,0,0,0,-2.2865,-2.2866,0,-2.2926,-2.2927,-2.2927,-2.2944,-2.2943,-2.2943,-2.2943,-2.3002,-2.3003,-2.3005,0,0,0,0,0,0,0,0,0,0,0,0,0,-2.2759,-2.276,-2.2865,-2.2866,-2.2867,-2.2926,-2.2927,-2.2927,-2.2944,-2.2943,-2.2943,-2.2942,-2.3001,-2.3003,-2.3005,0,0,0,0,0,0,0,0,0,0,0,0,0,-2.281,-2.2761,-2.2865,-2.2882,-2.2884,-2.2926,-2.2927,-2.2928,-2.2944,-2.2943,-2.2943,-2.2942,-2.3,-2.3003,-2.3006,-2.3034,0,0,-2.3014,-2.3016,0,0,0,0,0,0,0,0,-2.2808,-2.2814,-2.2879,-2.2881,-2.2883,-2.2927,-2.2911,-2.2963,-2.2944,-2.2921,-2.2942,-2.2942,-2.2977,-2.2982,-2.2994,-2.3037,-2.3039,-2.3015,-2.3016,-2.3018,-2.3018,0,0,0,0,0,0,0,-2.2804,-2.2812,-2.2889,-2.288,-2.2882,-2.2885,-2.2892,-2.2921,-2.2951,-2.2923,-2.2924,-2.2931,-2.2978,-2.2991,-2.2995,-2.304,-2.3015,-2.3017,-2.3019,-2.302,-2.3106,-2.3106,0,0,0,0,0,0,-2.2798,-2.2809,-2.2887,-2.2891,-2.2843,-2.2887,-2.2895,-2.2913,-2.2951,-2.2956,-2.2932,-2.2932,-2.2987,-2.2992,-2.2998,-2.3031,-2.3018,-2.302,-2.3022,-2.3105,-2.3106,-2.3106,0,0,0,0,0,0,-2.2796,-2.2805,-2.2885,-2.285,-2.2861,-2.289,-2.291,-2.2915,-2.2928,-2.2958,-2.2963,-2.294,-2.2986,-2.2994,-2.3024,-2.3034,-2.3022,-2.3024,-2.3104,-2.3105,-2.3106,-2.31,0,0,0,0,0,0,-2.2792,-2.2804,-2.2816,-2.285,-2.2862,-2.2912,-2.2911,-2.2916,-2.2933,-2.2934,-2.2967,-2.2971,-2.2987,-2.302,-2.3027,-2.3037,-2.3026,-2.3104,-2.3105,-2.3106,-2.31,-2.3101,-2.3102,0,0,0,0,0,-2.2789,-2.2812,-2.2817,-2.2826,-2.2879,-2.2912,-2.2919,-2.2937,-2.2934,-2.2946,-2.2964,-2.297,-2.3031,-2.3023,-2.3031,-2.3042,-2.3103,-2.3104,-2.3106,-2.3099,-2.31,-2.3101,0,0,0,0,0,0,-2.2778,-2.2817,-2.2823,-2.2858,-2.2882,-2.2915,-2.2931,-2.2938,-2.2963,-2.2962,-2.2982,-2.2989,-2.3018,-2.3033,-2.3023,-2.307,-2.3067,-2.307,-2.3059,-2.3061,-2.3062,-2.3057,-2.3029,0,0,0,0,0,-2.278,-2.2805,-2.2837,-2.2865,-2.2877,-2.2902,-2.2917,-2.2929,-2.2954,-2.2963,-2.2984,-2.3007,-2.3031,-2.3047,-2.3071,-2.3102,-2.3108,-2.3113,-2.3114,-2.3115,-2.3117,-2.3132,-2.3134,-2.311,-2.311,-2.311,0,0,-2.2783,-2.2808,-2.2823,-2.2864,-2.2884,-2.2908,-2.291,-2.2936,-2.2954,-2.2967,-2.2997,-2.3013,-2.304,-2.307,-2.3084,-2.3084,-2.3125,-2.3116,-2.3117,-2.3119,-2.3134,-2.3136,-2.3138,-2.3111,-2.3111,-2.3111,0,0,-2.2803,-2.2825,-2.2849,-2.2869,-2.2899,-2.2915,-2.292,-2.2952,-2.2963,-2.2994,-2.3004,-2.3024,-2.3066,-2.3084,-2.3099,-2.3122,-2.3128,-2.3129,-2.3134,-2.3148,-2.315,-2.3152,-2.3159,-2.3161,-2.3131,-2.3131,-2.3131,0,-2.2804,-2.2842,-2.2861,-2.2886,-2.2903,-2.2916,-2.294,-2.2958,-2.2993,-2.3004,-2.3003,-2.3054,-2.3073,-2.3107,-2.3112,-2.3124,-2.3129,-2.3125,-2.3149,-2.3151,-2.3152,-2.3159,-2.3162,-2.3131,-2.3131,-2.3131,-2.3131,0,-2.284,-2.2867,-2.2883,-2.2917,-2.2936,-2.296,-2.2981,-2.2997,-2.3006,-2.3021,-2.3051,-2.3074,-2.3102,-2.3111,-2.312,-2.3145,-2.3143,-2.3145,-2.3142,-2.3154,-2.3161,-2.3164,-2.3131,-2.3131,-2.3131,-2.3131,0,0,-2.2856,-2.2899,-2.2905,-2.292,-2.2952,-2.2972,-2.2996,-2.3024,-2.3036,-2.306,-2.3079,-2.3113,-2.3114,-2.3131,-2.3142,-2.3154,-2.3169,-2.3155,-2.3155,-2.3156,-2.3196,-2.3194,-2.3197,-2.3173,-2.3174,-2.3174,-2.3193,0,-2.2879,-2.2923,-2.294,-2.2975,-2.2998,-2.301,-2.303,-2.3052,-2.3066,-2.3086,-2.3101,-2.3125,-2.3125,-2.3135,-2.3148,-2.3165,-2.3177,-2.3164,-2.319,-2.3191,-2.3183,-2.3201,-2.3199,-2.3216,-2.3196,-2.3197,-2.3197,0,-2.2912,-2.2935,-2.2973,-2.3001,-2.3012,-2.303,-2.3055,-2.3075,-2.3099,-2.3108,-2.3125,-2.3135,-2.3158,-2.3154,-2.3185,-2.3175,-2.3186,-2.3196,-2.3197,-2.32,-2.3194,-2.3203,-2.3222,-2.3224,-2.3201,-2.3201,-2.3201,0,-2.2917,-2.2959,-2.2987,-2.2999,-2.3033,-2.3045,-2.3059,-2.3082,-2.3097,-2.3119,-2.3128,-2.3152,-2.3165,-2.3182,-2.3197,-2.3193,-2.3226,-2.3224,-2.3233,-2.3233,-2.324,-2.3239,-2.326,-2.3248,-2.3248,-2.3248,-2.3248,0,-2.294,-2.2963,-2.2989,-2.3006,-2.3031,-2.3049,-2.3072,-2.3087,-2.3107,-2.3125,-2.3136,-2.3153,-2.3173,-2.3191,-2.3203,-2.3226,-2.3232,-2.3239,-2.3242,-2.3238,-2.3237,-2.3245,-2.3244,-2.3249,-2.3249,-2.3248,-2.3248,0,-2.2951,-2.297,-2.3001,-2.303,-2.3037,-2.3054,-2.3078,-2.3094,-2.3108,-2.3131,-2.3137,-2.3159,-2.3182,-2.3198,-2.3227,-2.3235,-2.3259,-2.3262,-2.3252,-2.3253,-2.3261,-2.326,-2.3288,-2.3292,-2.3278,-2.3278,-2.3278,0,-2.2965,-2.2982,-2.3013,-2.3026,-2.304,-2.3062,-2.3077,-2.3095,-2.3109,-2.3136,-2.3148,-2.3171,-2.3191,-2.3226,-2.3244,-2.3265,-2.3269,-2.3277,-2.3272,-2.3267,-2.3267,-2.3266,-2.3267,-2.3277,-2.3278,-2.3278,-2.3278,0,-2.2986,-2.2994,-2.3016,-2.304,-2.3058,-2.3078,-2.3098,-2.3108,-2.3128,-2.3144,-2.3168,-2.3183,-2.3212,-2.3234,-2.3257,-2.327,-2.3277,-2.3279,-2.3282,-2.3278,-2.3271,-2.3274,-2.3253,-2.3278,-2.3278,-2.3278,-2.3278,-2.3278,-2.2998,-2.3013,-2.3036,-2.306,-2.3076,-2.3094,-2.311,-2.3126,-2.3146,-2.3172,-2.318,-2.3204,-2.3224,-2.3256,-2.3269,-2.3287,-2.3286,-2.3291,-2.3293,-2.3293,-2.3292,-2.3268,-2.3291,-2.3291,-2.3291,-2.3291,-2.3291,0,-2.3018,-2.3033,-2.3055,-2.3082,-2.31,-2.3105,-2.3127,-2.3141,-2.3162,-2.3181,-2.32,-2.3226,-2.3247,-2.3265,-2.3287,-2.3297,-2.3301,-2.3302,-2.3301,-2.3304,-2.3292,-2.3287,-2.3299,-2.3299,-2.3299,-2.3299,-2.3299,-2.3299,-2.3031,-2.3057,-2.3067,-2.31,-2.3115,-2.3139,-2.3151,-2.3167,-2.3182,-2.321,-2.3228,-2.324,-2.3258,-2.3281,-2.33,-2.3305,-2.3312,-2.3313,-2.3318,-2.3306,-2.3305,-2.3304,-2.3299,-2.3314,-2.3314,-2.3328,-2.3328,-2.3329]}]]